Theta_e
297 297 297 297 297 294 293 291 290 290 290 289 290 289 289 288 287 287 287 286 286 286
296 295 295 295 296 295 293 291 290 290 289 289 289 289 288 287 287 287 287 286 287 286
296 296 295 294 293 293 291 291 290 289 289 288 288 288 288 287 287 287 287 288 288 289
294 294 294 293 293 292 292 291 290 289 288 288 288 288 287 287 287 287 287 289 289 289
294 293 292 291 292 292 291 290 290 289 288 288 288 288 287 287 287 286 287 288 288 288
289 290 289 288 288 290 288 288 288 288 287 287 287 287 287 287 286 286 286 288 288 287
286 288 288 287 287 287 287 287 287 287 287 286 286 286 285 286 285 285 285 287 287 288
285 286 286 283 285 286 286 286 287 285 284 284 286 286 285 285 285 284 283 283 286 288
284 285 285 284 284 285 284 283 284 285 284 284 286 289 289 287 285 284 283 282 282 286
283 285 285 285 284 284 284 283 285 284 284 285 286 290 290 289 286 286 283 283 283 283
284 285 286 285 285 284 284 284 284 285 285 283 283 289 290 288 286 284 281 282 283 283
283 285 286 285 286 286 285 284 285 285 283 283 283 289 289 287 282 281 279 280 280 281
282 284 285 286 285 285 284 284 284 283 283 283 283 289 289 287 283 280 279 276 277 282
279 281 286 286 286 285 283 284 283 282 282 282 282 287 290 288 283 282 280 279 278 280
Wind_Speed
7 7 7 10 8 8 7 5 5 5 5 6 6 5 5 4 4 5 4 6 4 2
7 8 9 11 9 8 6 6 7 6 6 6 6 6 6 4 5 5 4 5 5 3
8 9 8 8 10 10 7 9 9 8 7 6 6 6 6 5 5 6 4 4 5 3
6 6 6 8 9 10 9 10 11 10 9 8 8 7 6 6 6 7 5 5 5 5
5 4 5 7 8 9 11 10 11 10 10 9 8 8 8 8 7 7 7 6 6 5
7 5 6 6 6 7 9 9 10 11 11 10 9 9 8 8 8 8 7 6 8 6
8 6 6 6 6 7 8 10 10 10 9 9 9 8 7 8 8 6 6 6 6 6
10 7 5 4 6 6 8 9 9 9 7 7 9 7 9 8 9 8 6 5 5 5
10 8 6 5 6 8 7 7 9 10 10 10 7 15 17 12 9 8 9 8 5 6
9 10 7 6 7 8 9 8 10 10 10 11 9 19 18 16 8 9 7 8 8 5
10 10 8 7 9 8 8 11 11 11 10 10 9 21 21 17 9 9 7 8 9 8
11 12 8 10 11 9 9 9 9 10 11 11 9 23 23 19 8 7 7 6 7 7
12 13 12 11 11 10 9 10 9 9 11 11 10 20 23 18 7 8 6 3 5 11
12 14 13 11 10 10 10 9 10 11 9 10 12 15 24 24 9 8 8 7 6 6
Wind_Direction
171 175 177 179 184 189 193 186 168 175 165 165 164 153 149 139 137 132 130 127 110 116
181 172 182 182 183 186 172 157 168 172 166 167 162 155 153 146 144 139 139 130 128 126
200 194 185 172 181 180 165 162 167 172 165 167 166 160 156 146 151 137 139 132 127 113
237 205 175 184 183 182 169 170 171 173 170 174 170 165 159 151 151 139 136 131 149 143
259 229 194 193 188 173 175 172 171 167 171 173 172 167 165 159 154 146 151 153 150 154
298 232 219 209 184 173 161 165 163 168 175 175 174 169 168 159 158 153 158 154 163 164
306 263 232 215 182 173 170 166 169 175 171 174 168 169 160 156 159 153 153 153 162 170
306 277 236 182 182 164 169 175 171 158 158 159 170 171 166 164 162 157 152 155 171 163
300 288 233 203 181 174 171 162 158 168 169 171 179 180 176 166 160 160 163 166 168 174
290 295 245 206 184 183 179 171 178 170 167 180 181 187 181 173 166 169 170 164 167 167
297 287 263 213 201 191 180 181 183 182 178 175 185 188 186 177 178 180 170 170 172 175
304 290 261 228 212 200 188 190 188 189 181 181 183 188 186 180 169 172 173 167 169 170
303 289 266 232 217 201 194 195 189 185 187 187 180 188 188 179 168 169 170 168 175 183
296 287 266 232 212 200 192 188 187 186 181 180 179 188 189 183 174 175 170 177 184 191